Location: San Pelegr�n
(42.1868°N, 0.0079°E)
Time: 21:10:59
(UTC+00:00)

SL-8 R/B - Pass Details

Date: 24 January 2020
Orbit: 656 x 667 km, 48.4° (Epoch: 19 February)

Event Time Altitude Azimuth Distance (km) Brightness Sun altitude
Rises 17:48:33 0° 241° (WSW) 2,992 9.1 -8.6°
Reaches altitude 10° 17:50:54 10° 242° (WSW) 2,081 7.8 -9.0°
Maximum altitude 17:55:43 89° 334° (NNW) 668 3.7 -9.9°
Enters shadow 17:59:54 14° 62° (ENE) 1,837 5.3 -10.6°
